This demonstration page uses our WeatherBlox Daily Observations layout. Learn more.

Left ArrowRight Arrow

Hourly Observations for June 8, 2019

Temp ( °F °C ) Dew Point ( °F °C ) Humidity (%) Winds ( mph kmh ) Pressure ( in mb ) Visibility ( mi km ) Precip ( " mm )
12:59 am 00:59 Cloudy with Light Rain 72 22.2 71 21.7 97 97 ENE 7 11 29.93 1014 2 3 0.04 1.02
1:59 am 01:59 Cloudy with Light Rain 72 22.2 71 21.7 97 97 ENE 9 15 29.92 1013 2 3 0.07 1.78
2:59 am 02:59 Cloudy with Light Rain 71 21.7 70 21.1 96 96 ENE 9 15 29.93 1014 3 5 0.05 1.27
3:06 am 03:06 Cloudy with Light Rain 71 21.7 70 21.1 96 96 E 12 19 29.93 1014 3 5 0.01 0.25
3:59 am 03:59 Cloudy with Mist and Fog 70 21.1 69 20.6 97 97 E 12 19 29.93 1014 4 6 0.03 0.76
4:59 am 04:59 Cloudy with Mist and Fog 70 21.1 69 20.6 97 97 E 9 15 29.94 1014 5 8 0.00 0.00
5:28 am 05:28 Cloudy with Light Rain 70 21.1 69 20.6 97 97 E 10 17 29.95 1014 4 6 0.00 0.03
5:59 am 05:59 Cloudy with Mist and Fog 71 21.7 69 20.6 94 94 ENE 9 15 29.95 1014 4 6 0.02 0.51
6:08 am 06:08 Cloudy with Rain 71 21.7 69 20.6 94 94 ENE 10 17 29.95 1014 4 6 0.00 0.03
6:16 am 06:16 Cloudy with Rain 71 21.7 69 20.6 94 94 ENE 10 17 29.95 1014 4 6 0.00 0.03
6:59 am 06:59 Cloudy with Mist and Fog 71 21.7 69 20.6 94 94 NE 10 17 29.96 1015 4 6 0.00 0.03
7:59 am 07:59 Cloudy with Mist and Fog 72 22.2 70 21.1 94 94 ENE 15 24 29.98 1015 5 8 0.00 0.00
8:59 am 08:59 Cloudy with Mist and Fog 71 21.7 69 20.6 94 94 ENE 14 22 29.99 1016 6 10 0.00 0.00
9:59 am 09:59 Cloudy with Mist and Fog 71 21.7 69 20.6 94 94 ENE 14 22 30.01 1016 6 10 0.00 0.00
10:59 am 10:59 Cloudy with Mist and Fog 71 21.7 68 20 90 90 ENE 16 26 30.02 1017 6 10 0.00 0.00
11:59 am 11:59 Cloudy with Mist and Fog 71 21.7 68 20 90 90 ENE 14 22 30.04 1017 6 10 0.00 0.00
12:59 pm 12:59 Cloudy 71 21.7 67 19.4 87 87 ENE 16 26 30.05 1018 7 11 0.00 0.00
1:59 pm 13:59 Cloudy 70 21.1 67 19.4 90 90 ENE 15 24 30.05 1018 7 11 0.00 0.00
2:59 pm 14:59 Cloudy 71 21.7 67 19.4 87 87 ENE 14 22 30.04 1017 7 11 0.00 0.00
3:59 pm 15:59 Cloudy 71 21.7 67 19.4 87 87 NE 14 22 30.03 1017 7 11 0.00 0.00
4:59 pm 16:59 Cloudy 71 21.7 68 20 90 90 ENE 15 24 30.03 1017 8 13 0.00 0.00
5:59 pm 17:59 Cloudy 71 21.7 68 20 90 90 NE 18 30 30.03 1017 8 13 0.00 0.00
6:59 pm 18:59 Cloudy 71 21.7 67 19.4 87 87 ENE 17 28 30.05 1018 7 11 0.00 0.00
7:59 pm 19:59 Cloudy 70 21.1 67 19.4 90 90 ENE 13 20 30.05 1018 7 11 0.00 0.00
8:59 pm 20:59 Cloudy 70 21.1 67 19.4 90 90 NE 15 24 30.05 1018 8 13 0.00 0.00
9:59 pm 21:59 Cloudy 71 21.7 67 19.4 87 87 NE 12 19 30.06 1018 8 13 0.00 0.00
10:43 pm 22:43 Mostly Cloudy 71 21.7 69 20.6 94 94 ENE 14 22 30.06 1018 7 11 0.00 0.00
10:59 pm 22:59 Mostly Cloudy 71 21.7 69 20.6 94 94 ENE 14 22 30.06 1018 7 11 0.00 0.00
11:59 pm 23:59 Cloudy 71 21.7 69 20.6 94 94 NE 14 22 30.07 1018 7 11 0.00 0.00

Powered by AerisWeather